Regional Weather Roundup
Issued by NWS

Home | Current Version | Previous Version | Graphics & Text | Print | Product List | Glossary On
Versions: 1 2 3 4 5 6 7 8 9 10 11 12 13 14 15 16 17 18 19 20 21 22 23 24 25 26 27 28 29 30 31 32 33 34 35 36 37 38 39 40 41 42 43 44 45 46 47 48 49 50
704
ASUS44 KMEG 281200
RWRTN
TENNESSEE HOURLY STATE WEATHER ROUNDUP
NATIONAL WEATHER SERVICE MEMPHIS TN
700 AM CDT WED SEP 28 2016

TNZ002-004-019-021-049-052-054-088>092-281300-
WEST TENNESSEE

CITY           SKY/WX    TMP DP  RH WIND       PRES   REMARKS
MEMPHIS INTL   CLEAR     57  50  77 SW3       29.94S
NWS MEMPHIS      N/A     54 N/A N/A MISG        N/A
JACKSON        CLEAR    N/A N/A N/A S3        29.93S
DYERSBURG      CLEAR    N/A N/A N/A MISG        N/A
PARIS          CLEAR     54  45  71 CALM      29.91S
LEXINGTON      CLEAR     46  46 100 CALM      29.93S
$$

TNZ008-025-027-028-033-062-065-066-281300-
NORTH MIDDLE TENNESSEE

CITY           SKY/WX    TMP DP  RH WIND       PRES   REMARKS
NASHVILLE      PTCLDY    52  47  83 S7        29.93S
CLARKSVILLE    CLEAR     55  48  77 S3        29.89S
SMYRNA         CLEAR     48  47  96 CALM      29.95S
COOKEVILLE     CLEAR     45  45 100 CALM      29.95S
CROSSVILLE     CLEAR     45  42  89 CALM      29.98S
$$

TNZ061-075-076-078-094-096-097-281300-
SOUTH MIDDLE TENNESSEE

CITY           SKY/WX    TMP DP  RH WIND       PRES   REMARKS
SHELBYVILLE    CLEAR     48  46  93 E3        29.97S
$$

TNZ017-018-042-046-047-281300-
NORTHEAST TENNESSEE

CITY           SKY/WX    TMP DP  RH WIND       PRES   REMARKS
TRI CITIES     FOG       59  58  96 CALM      29.96S VSB 3/4
$$

TNZ012-013-036-069-073-074-281300-
CENTRAL EAST TENNESSEE

CITY           SKY/WX    TMP DP  RH WIND       PRES   REMARKS
KNOXVILLE      PTCLDY    56  52  86 CALM      29.94F
OAK RIDGE      CLEAR     51  47  86 CALM      29.98R
GATLINBURG     CLEAR     55  55 100 CALM      29.95S
$$

TNZ083-085-099-281300-
SOUTHEAST TENNESSEE

CITY           SKY/WX    TMP DP  RH WIND       PRES   REMARKS
CHATTANOOGA    CLEAR     56  51  84 CALM      29.97R
$$

SKY/WX REPORTED AS FAIR MEANS FEW OR NO CLOUDS BELOW
12 THOUSAND FEET.





USA.gov is the U.S. government's official web portal to all federal, state and local government web resources and services.